Wind_Speed
5 4 4 3 2 1 7 6 3 4 10 12 9 10 8 13 12 10 13 11 10 12 15 19 16 14 12 10 11 11 11 9 8 6 4 3 1 0 2 2 3 4 6 7 10 8 7 4 5
5 4 4 3 2 0 7 2 7 10 9 11 13 13 13 19 19 20 19 15 13 10 9 15 17 17 15 14 14 13 13 11 10 9 7 5 4 2 0 1 1 2 5 7 7 7 6 4 4
4 5 5 3 1 0 5 10 11 10 14 18 20 21 20 24 26 23 26 27 26 21 18 16 16 18 19 18 16 15 14 14 13 11 10 8 6 4 3 2 2 1 2 6 7 9 5 3 3
5 5 5 4 5 5 10 15 19 21 23 27 27 21 20 20 26 23 26 29 29 30 32 29 24 23 21 20 19 17 16 16 15 14 12 10 9 7 5 4 4 4 3 4 5 7 5 5 4
5 5 6 5 5 4 12 18 23 21 20 22 25 26 26 26 28 26 26 30 31 29 29 27 26 25 24 23 22 20 18 17 16 15 14 13 11 10 7 5 4 4 5 5 7 7 7 8 7
5 5 6 9 9 9 14 18 22 25 21 20 23 26 28 26 28 26 25 30 34 31 29 27 27 26 26 26 26 24 22 20 18 17 16 15 14 13 11 9 7 6 6 7 8 8 10 10 11
6 8 8 10 12 12 18 22 22 25 24 23 25 27 29 30 32 31 29 32 33 32 29 29 28 27 27 27 26 26 24 23 21 21 20 18 17 14 12 11 9 8 7 8 9 9 10 11 13
7 8 9 10 11 13 15 19 20 22 21 19 22 16 22 26 29 32 27 29 30 32 31 28 29 29 28 28 28 28 26 24 24 23 21 20 20 18 16 15 13 12 11 10 10 11 11 11 14
8 8 8 8 9 13 15 17 19 22 23 20 22 23 24 31 33 36 36 33 33 30 31 31 30 29 29 29 29 28 26 25 24 22 21 19 19 18 19 19 18 17 15 13 12 12 12 13 14
7 8 7 8 11 15 16 21 21 23 24 21 25 25 26 27 33 37 38 36 35 36 34 31 33 32 29 29 29 28 27 25 24 22 23 23 22 22 21 21 19 20 20 19 17 16 15 14 13
6 8 9 10 15 15 17 19 22 26 25 23 24 20 22 25 31 37 41 40 36 36 33 33 33 34 34 31 29 29 29 28 27 27 27 26 25 24 22 22 22 21 20 19 20 20 19 18 18
6 9 10 12 15 17 18 20 24 23 22 19 17 19 21 24 29 31 42 44 42 37 31 33 34 37 35 35 32 32 31 31 30 28 25 23 23 23 23 22 23 23 24 23 23 22 23 24 23
8 8 12 16 17 19 21 20 23 17 19 18 20 22 26 29 30 31 32 37 42 35 33 34 35 36 34 32 32 32 31 30 30 28 26 24 23 23 24 24 24 24 25 25 25 26 26 25 25
13 14 16 15 18 19 19 17 15 18 18 21 24 25 28 31 31 33 32 34 31 36 30 33 39 37 33 30 29 29 29 28 28 27 27 27 27 26 26 26 27 25 25 27 28 28 28 28 29
16 16 14 15 17 18 17 9 15 16 20 21 23 26 29 28 29 33 38 36 30 28 31 27 32 34 35 29 28 26 25 26 26 27 28 29 29 30 30 29 29 27 29 28 28 29 30 30 30
13 13 14 17 17 17 17 10 11 16 21 20 21 25 26 24 26 30 32 19 22 20 23 28 30 31 28 26 25 25 24 25 25 27 28 29 31 32 33 32 32 31 31 32 31 30 31 33 33
12 15 20 20 16 20 20 17 13 13 18 19 22 26 26 21 22 23 22 15 18 22 27 26 28 27 23 21 19 23 24 26 26 27 29 31 32 32 34 34 33 34 34 34 34 34 34 35 35
14 21 22 20 19 22 24 22 16 12 20 25 23 26 25 20 19 19 17 10 9 9 9 16 28 18 21 19 18 20 23 25 27 29 30 30 31 33 33 35 35 35 35 35 36 37 37 37 36
16 19 23 18 19 28 19 17 9 12 20 24 24 23 23 18 16 15 16 12 7 8 7 4 10 12 14 16 18 19 22 23 25 27 28 29 29 30 32 32 33 34 35 35 35 36 38 38 37
14 21 19 14 21 28 10 16 8 10 17 22 22 21 21 18 15 11 10 9 7 7 6 1 7 10 13 16 18 18 20 22 23 25 26 27 27 27 29 29 31 32 34 35 36 37 38 39 39
14 16 18 22 31 12 13 6 5 7 13 21 20 19 19 17 14 11 7 6 5 6 5 4 2 5 8 12 14 15 17 19 20 21 22 23 23 23 24 26 27 29 32 34 35 37 39 40 40
19 17 22 25 20 7 12 6 7 5 10 19 23 20 17 15 14 12 9 5 3 3 3 6 6 9 9 11 14 16 16 16 17 17 18 19 20 21 22 23 25 26 28 31 32 34 36 39 41
13 23 20 20 14 16 1 6 4 9 13 17 24 23 19 15 12 11 10 9 6 5 6 8 8 8 12 15 17 17 15 15 16 16 17 18 19 19 20 21 22 23 24 26 28 29 32 35 38
19 21 15 6 5 3 1 4 7 9 11 15 18 24 23 18 14 11 8 7 8 8 7 7 8 10 10 12 14 15 14 16 16 17 17 17 18 18 19 20 21 22 22 22 24 25 27 29 33
21 18 6 4 2 4 2 9 9 11 12 15 17 21 26 21 18 13 11 9 9 10 10 11 11 11 12 12 13 15 16 17 17 17 17 18 19 19 19 21 22 23 24 25 25 25 26 27 29
10 10 1 4 2 6 18 7 6 7 13 16 15 22 26 23 19 16 12 11 10 9 10 11 12 14 16 16 16 17 17 19 19 20 21 21 21 21 22 22 23 24 25 26 27 28 28 28 29
7 5 8 6 8 4 5 5 6 9 12 12 16 20 26 19 14 11 12 13 13 12 10 10 11 11 13 15 19 20 22 22 22 23 24 24 25 26 26 26 25 26 26 27 28 26 25 27 28
10 9 5 4 2 4 7 12 9 6 12 14 19 20 22 14 11 11 11 11 13 13 12 13 13 12 11 13 14 15 18 23 26 28 29 29 30 31 31 30 29 29 28 28 28 28 25 26 25
13 12 5 6 5 4 2 8 12 14 20 11 15 23 24 19 15 12 12 12 13 13 14 14 14 14 15 15 16 16 16 18 19 21 25 30 32 33 34 34 33 33 32 30 30 28 27 26 27
15 14 11 5 4 10 8 25 19 9 11 11 16 31 30 25 23 16 13 12 12 12 13 13 14 15 16 17 19 19 20 21 22 22 24 26 27 29 31 34 33 34 34 33 32 29 28 27 27
Wind_Direction
190 192 228 217 247 264 13 33 196 254 275 276 270 278 277 245 236 250 268 268 265 260 257 243 246 242 257 248 233 230 234 242 247 244 237 237 242 293 104 100 70 89 139 148 158 146 129 110 140
212 217 245 246 245 264 79 113 264 259 265 274 283 279 262 261 245 239 254 269 266 264 270 251 249 249 245 242 245 240 233 230 238 248 245 234 240 223 295 143 105 87 150 161 168 171 151 145 150
244 254 249 253 197 222 317 282 296 284 288 287 287 290 282 273 274 267 261 265 264 264 269 274 265 253 250 246 241 240 239 235 233 234 242 240 237 239 243 231 201 178 157 177 184 182 171 182 164
248 263 274 272 268 249 280 274 269 275 282 290 289 288 280 274 272 269 264 264 265 264 269 276 275 268 258 252 248 242 237 234 234 233 231 232 234 236 239 243 237 218 209 197 183 193 214 194 186
270 273 263 269 270 228 260 268 279 284 287 297 297 293 285 286 284 280 273 270 269 264 263 265 263 263 268 261 257 256 249 238 238 238 234 230 230 234 235 235 240 247 235 231 223 212 210 212 216
255 256 258 265 264 239 250 266 275 284 285 289 288 286 285 286 282 274 273 274 275 272 269 263 258 257 256 256 255 258 257 250 244 239 232 231 233 233 230 227 231 231 238 240 242 237 234 230 229
263 275 275 282 292 275 266 277 282 292 294 289 281 280 284 282 282 280 274 272 272 270 266 265 259 252 251 251 247 249 256 255 257 249 240 234 234 235 235 236 233 235 238 242 242 242 245 245 237
276 279 273 281 293 285 278 280 286 288 294 294 291 280 276 279 275 275 276 271 272 274 265 254 256 255 248 242 244 244 242 250 254 252 244 241 242 241 237 238 240 240 238 240 247 248 246 249 242
268 259 271 269 265 264 287 297 294 294 295 298 301 291 283 273 270 271 271 267 268 266 266 266 253 248 248 245 239 235 236 244 247 244 240 243 249 252 251 246 244 243 243 245 247 252 254 253 255
243 255 258 253 265 277 290 291 297 296 298 309 297 289 284 274 274 274 272 268 264 264 261 261 258 247 238 238 240 236 233 234 236 236 243 253 256 257 258 257 252 246 246 246 249 250 254 259 263
243 259 271 276 284 298 301 296 298 303 308 300 300 299 294 287 277 273 271 271 269 263 261 251 250 250 241 232 231 234 236 236 237 244 249 252 257 258 258 261 259 255 246 246 247 251 253 255 257
267 276 299 302 295 294 300 309 305 304 303 313 314 312 306 296 290 281 270 271 270 265 264 249 247 246 245 242 235 235 236 239 243 242 246 250 253 258 258 257 259 260 257 251 248 252 252 253 253
299 301 303 305 304 303 302 309 298 311 312 319 320 320 315 309 301 293 283 268 269 270 257 252 242 246 246 244 245 240 236 235 238 242 243 244 250 256 263 264 260 258 259 257 255 251 250 252 254
310 309 309 307 306 297 296 313 301 313 319 327 326 323 320 317 312 308 297 290 283 264 267 248 241 245 250 248 244 247 245 241 239 240 246 249 250 252 255 260 263 261 257 257 255 254 252 252 254
316 310 298 299 303 310 318 324 323 322 322 327 324 330 324 319 316 308 295 281 281 275 255 260 254 247 245 244 246 247 248 248 248 246 247 251 253 254 254 253 255 259 259 254 255 256 256 254 251
321 307 305 314 317 318 325 319 320 321 323 326 327 335 328 325 320 316 308 292 268 268 249 246 252 252 240 244 246 248 249 251 251 252 252 252 253 254 253 252 252 251 254 257 255 253 254 257 254
309 301 307 320 321 319 317 321 329 326 336 341 341 338 340 333 335 341 332 305 288 266 255 257 254 251 239 244 250 254 255 255 257 256 257 257 255 254 256 255 252 254 253 255 258 258 256 254 255
301 302 306 310 317 316 315 314 319 317 338 355 345 342 343 347 348 4 6 309 296 304 261 243 228 233 227 240 251 255 259 261 260 261 261 261 262 259 257 259 260 258 257 257 260 262 261 259 257
298 299 304 322 321 318 315 300 291 315 351 348 346 343 350 354 359 13 21 17 356 339 326 266 226 217 225 240 248 253 255 260 263 264 265 265 264 265 264 263 264 266 265 264 263 263 264 266 263
299 307 317 330 323 309 306 310 289 330 348 344 348 347 355 0 4 17 28 25 18 0 340 177 193 209 223 237 244 251 257 259 262 264 266 267 267 268 269 267 266 266 266 265 265 265 264 264 265
314 315 318 314 322 317 317 303 286 316 336 355 353 351 357 5 5 14 20 30 21 25 24 28 326 260 251 254 261 262 263 265 265 265 267 270 274 278 277 279 276 273 270 268 265 264 263 262 260
333 330 319 312 319 324 316 291 228 272 318 348 359 354 356 5 10 10 11 13 355 10 309 273 252 228 240 257 261 266 267 267 264 268 272 275 276 278 283 286 286 283 277 275 270 266 264 264 262
322 320 314 300 299 312 329 264 217 242 285 323 360 2 355 356 0 9 6 356 353 343 310 303 294 288 277 270 276 280 279 272 273 275 273 274 278 280 282 286 288 287 281 275 273 269 265 264 265
331 333 321 309 296 292 259 236 278 247 288 317 348 5 3 355 350 346 345 344 335 331 321 305 298 298 284 273 275 275 271 270 273 272 272 273 276 280 288 295 296 295 292 287 278 273 270 267 266
342 345 325 350 346 239 265 292 269 284 297 301 320 350 4 355 352 341 338 328 314 306 302 303 300 295 292 290 285 279 277 276 272 269 270 269 272 280 289 293 294 294 296 294 289 283 276 272 270
336 354 28 254 291 289 282 245 315 286 280 299 327 349 353 346 343 350 350 344 332 319 312 304 296 293 287 282 281 282 283 282 279 275 271 272 275 279 283 287 291 293 295 296 293 289 284 279 275
325 323 304 272 273 295 271 289 284 258 278 294 305 318 330 341 342 355 3 5 1 356 346 331 316 308 300 293 284 278 277 277 277 276 275 275 278 281 283 286 289 292 294 297 295 292 290 291 285
310 318 285 246 336 285 290 294 273 266 294 292 300 329 342 332 326 329 339 347 346 345 343 338 334 330 322 311 300 293 285 277 273 272 273 274 276 280 283 285 287 289 290 294 296 292 291 291 297
294 300 251 249 249 205 281 267 262 283 307 314 347 344 337 329 315 318 323 329 331 330 326 324 321 320 318 315 314 310 304 295 289 285 280 277 276 277 279 281 284 287 287 289 293 290 289 296 299
282 278 250 229 253 256 292 276 303 287 242 263 327 332 320 315 312 299 301 310 319 326 332 332 331 332 328 322 315 308 305 300 297 296 294 292 290 286 283 280 279 281 284 286 290 287 284 288 293
Height
3164 3165 3167 3168 3174 3171 3170 3174 3169 3170 3171 3172 3172 3172 3171 3169 3170 3173 3167 3166 3167 3168 3168 3168 3169 3169 3170 3170 3169 3170 3170 3171 3171 3171 3171 3171 3170 3170 3170 3169 3169 3168 3168 3168 3169 3170 3170 3171 3172
3163 3165 3167 3168 3170 3169 3170 3170 3169 3169 3169 3170 3171 3172 3171 3167 3167 3167 3166 3165 3165 3166 3167 3167 3167 3168 3167 3167 3167 3167 3167 3168 3168 3170 3170 3170 3170 3169 3169 3169 3169 3169 3168 3168 3169 3170 3170 3170 3171
3163 3164 3166 3167 3167 3168 3169 3168 3169 3169 3169 3168 3169 3168 3168 3166 3166 3169 3167 3164 3164 3165 3165 3166 3166 3166 3165 3165 3165 3165 3165 3166 3166 3166 3168 3168 3168 3168 3168 3168 3169 3169 3168 3168 3169 3170 3170 3171 3171
3161 3164 3166 3166 3166 3167 3166 3166 3166 3165 3165 3164 3163 3164 3162 3162 3159 3162 3161 3159 3159 3162 3163 3163 3164 3163 3163 3163 3162 3162 3162 3162 3163 3164 3164 3166 3166 3167 3167 3167 3168 3168 3168 3168 3168 3169 3170 3171 3171
3160 3162 3163 3163 3163 3164 3162 3161 3160 3162 3162 3161 3157 3158 3157 3157 3157 3158 3157 3154 3152 3155 3156 3156 3157 3158 3160 3161 3161 3160 3160 3159 3160 3161 3162 3163 3164 3164 3165 3165 3166 3167 3167 3168 3168 3168 3169 3169 3170
3158 3160 3159 3159 3159 3159 3157 3157 3157 3156 3157 3157 3154 3151 3151 3152 3149 3150 3152 3148 3146 3150 3151 3151 3151 3153 3154 3155 3157 3158 3158 3158 3158 3158 3159 3160 3161 3162 3162 3163 3164 3164 3165 3166 3167 3168 3168 3168 3169
3156 3157 3156 3156 3156 3156 3156 3154 3153 3151 3151 3151 3149 3147 3146 3145 3144 3142 3146 3143 3140 3140 3144 3145 3145 3146 3147 3149 3150 3152 3153 3155 3155 3156 3156 3157 3158 3159 3161 3161 3162 3163 3163 3164 3165 3166 3166 3166 3167
3153 3154 3153 3152 3152 3152 3151 3149 3149 3147 3147 3146 3144 3142 3140 3138 3137 3136 3136 3137 3137 3134 3135 3136 3137 3140 3141 3142 3143 3145 3147 3149 3151 3152 3153 3154 3155 3156 3157 3158 3159 3160 3161 3161 3162 3163 3164 3164 3165
3151 3151 3150 3149 3148 3148 3147 3146 3145 3143 3141 3142 3140 3138 3137 3133 3131 3128 3128 3130 3129 3129 3128 3129 3130 3131 3134 3136 3137 3139 3141 3143 3145 3147 3149 3151 3152 3152 3154 3155 3156 3157 3158 3159 3160 3161 3161 3162 3162
3149 3148 3147 3147 3146 3145 3145 3143 3141 3139 3137 3137 3133 3132 3130 3127 3124 3122 3120 3120 3121 3120 3122 3122 3121 3124 3126 3129 3132 3134 3135 3137 3139 3142 3144 3146 3147 3149 3149 3150 3151 3153 3154 3155 3156 3157 3158 3159 3160
3146 3146 3146 3145 3144 3143 3142 3140 3137 3133 3131 3129 3126 3125 3123 3122 3119 3115 3112 3110 3111 3113 3113 3114 3114 3115 3119 3121 3124 3127 3130 3132 3133 3136 3137 3139 3142 3143 3145 3146 3147 3148 3149 3150 3152 3153 3154 3155 3156
3145 3145 3144 3143 3142 3140 3139 3136 3132 3130 3126 3124 3121 3118 3116 3115 3113 3110 3105 3102 3101 3103 3105 3105 3106 3108 3111 3114 3117 3118 3122 3126 3129 3129 3132 3134 3135 3137 3139 3141 3142 3143 3144 3145 3147 3148 3148 3150 3151
3144 3143 3142 3141 3139 3137 3135 3133 3128 3125 3122 3120 3117 3114 3110 3107 3104 3101 3098 3095 3093 3093 3098 3099 3099 3100 3104 3107 3111 3113 3115 3118 3122 3125 3126 3128 3129 3131 3132 3134 3136 3137 3138 3140 3141 3142 3143 3144 3145
3142 3140 3139 3139 3137 3134 3132 3129 3124 3122 3118 3115 3112 3109 3105 3100 3095 3091 3088 3085 3085 3085 3087 3091 3092 3094 3098 3102 3105 3107 3111 3113 3115 3118 3121 3122 3123 3124 3126 3127 3128 3131 3132 3132 3134 3135 3137 3138 3139
3139 3139 3137 3136 3134 3129 3127 3124 3120 3117 3115 3111 3108 3104 3099 3095 3089 3084 3078 3075 3076 3077 3079 3080 3084 3087 3091 3095 3099 3102 3105 3107 3110 3113 3114 3116 3118 3119 3119 3120 3122 3123 3124 3126 3126 3128 3129 3130 3132
3138 3136 3134 3133 3130 3127 3125 3120 3118 3114 3111 3108 3104 3100 3095 3090 3085 3078 3069 3067 3069 3070 3071 3073 3077 3079 3085 3089 3094 3097 3100 3102 3104 3106 3108 3110 3110 3112 3113 3114 3115 3116 3116 3117 3119 3121 3122 3123 3124
3135 3134 3132 3128 3126 3123 3121 3115 3114 3112 3109 3104 3100 3096 3090 3086 3081 3074 3065 3064 3065 3065 3065 3066 3070 3074 3080 3085 3089 3093 3096 3098 3099 3099 3101 3103 3104 3104 3106 3107 3108 3108 3109 3110 3110 3112 3114 3115 3117
3135 3132 3129 3127 3124 3117 3115 3108 3109 3109 3105 3099 3097 3092 3087 3082 3077 3071 3065 3063 3064 3063 3062 3061 3065 3069 3076 3081 3085 3088 3092 3094 3095 3095 3095 3096 3097 3098 3097 3099 3101 3101 3101 3102 3103 3103 3104 3106 3108
3133 3130 3125 3124 3119 3112 3110 3107 3106 3105 3102 3097 3095 3090 3085 3080 3075 3070 3066 3064 3062 3062 3061 3062 3064 3069 3074 3079 3081 3084 3086 3088 3089 3090 3089 3089 3090 3091 3091 3091 3093 3094 3094 3095 3096 3096 3096 3097 3100
3131 3127 3123 3119 3117 3113 3107 3104 3102 3101 3099 3097 3093 3088 3083 3078 3074 3070 3067 3065 3064 3064 3063 3063 3065 3068 3071 3075 3077 3078 3081 3082 3083 3084 3084 3083 3083 3083 3084 3084 3084 3085 3086 3086 3087 3087 3088 3088 3090
3129 3124 3121 3118 3111 3108 3105 3101 3099 3098 3096 3095 3091 3087 3082 3078 3074 3071 3068 3066 3065 3065 3065 3065 3067 3069 3070 3072 3074 3075 3076 3077 3077 3077 3078 3077 3077 3076 3076 3077 3076 3077 3077 3077 3077 3078 3077 3078 3080
3124 3122 3119 3115 3112 3109 3107 3103 3098 3097 3096 3095 3091 3086 3082 3078 3074 3071 3069 3067 3065 3065 3065 3065 3066 3066 3068 3069 3070 3070 3071 3071 3071 3072 3072 3072 3071 3070 3070 3069 3069 3069 3068 3068 3068 3068 3067 3067 3067
3125 3121 3117 3112 3110 3107 3104 3105 3096 3096 3095 3093 3090 3086 3081 3077 3074 3071 3068 3067 3065 3065 3064 3064 3064 3065 3066 3065 3065 3065 3066 3066 3066 3066 3066 3066 3066 3065 3064 3063 3062 3061 3060 3059 3058 3058 3058 3058 3057
3123 3118 3111 3108 3108 3107 3103 3105 3095 3094 3093 3091 3088 3085 3080 3077 3074 3071 3069 3067 3065 3063 3063 3062 3062 3062 3061 3061 3061 3061 3061 3060 3060 3060 3060 3060 3060 3059 3057 3056 3055 3054 3053 3052 3050 3049 3049 3048 3047
3121 3118 3112 3112 3110 3108 3104 3103 3094 3093 3092 3089 3087 3084 3080 3077 3073 3070 3068 3066 3064 3062 3060 3060 3059 3059 3057 3057 3056 3055 3055 3055 3055 3055 3054 3054 3053 3053 3051 3051 3050 3049 3047 3046 3044 3043 3041 3040 3039
3120 3119 3119 3122 3117 3108 3103 3098 3093 3092 3089 3087 3084 3081 3078 3075 3072 3069 3067 3064 3062 3060 3058 3057 3055 3055 3054 3053 3052 3051 3051 3050 3049 3049 3049 3048 3047 3046 3046 3045 3044 3042 3040 3038 3036 3035 3034 3032 3031
3120 3119 3119 3116 3112 3110 3098 3094 3091 3088 3087 3085 3083 3081 3078 3075 3072 3069 3066 3064 3061 3059 3056 3055 3053 3051 3050 3049 3047 3046 3045 3044 3044 3043 3042 3042 3042 3040 3039 3038 3037 3035 3033 3031 3028 3027 3026 3024 3022
3118 3118 3116 3115 3115 3109 3097 3093 3088 3086 3085 3083 3081 3079 3076 3074 3072 3069 3066 3063 3061 3058 3055 3053 3050 3048 3046 3044 3043 3041 3040 3039 3038 3037 3036 3035 3035 3033 3032 3031 3030 3028 3026 3023 3021 3019 3017 3016 3014
3115 3113 3113 3112 3110 3108 3105 3090 3084 3083 3083 3081 3077 3075 3074 3073 3070 3068 3065 3061 3059 3056 3053 3050 3048 3046 3043 3040 3038 3036 3034 3032 3030 3029 3027 3026 3024 3024 3022 3021 3021 3020 3018 3016 3013 3011 3009 3006 3004
3111 3110 3110 3109 3108 3105 3103 3082 3078 3079 3077 3074 3072 3072 3070 3069 3067 3065 3061 3059 3057 3054 3051 3048 3046 3043 3040 3037 3034 3031 3029 3026 3023 3021 3019 3016 3015 3014 3012 3011 3011 3010 3009 3007 3005 3003 3001 2999 2998